| time (UTC) | temp C | wind direction | speed KPH | gust KPH | rain 1hr cm | rain 24hr cm | rain mn cm | humidity % | barometer mb |
| 20260502170118 | 20 | 32 | 0.0 | 6.4 | 0.00 | 2.16 | 0.03 | 61 | 1021.0 |
| 20260502163048 | 19 | 18 | 0.0 | 4.8 | 0.00 | 2.51 | 0.03 | 64 | 1021.1 |
| 20260502161557 | 19 | 45 | 0.0 | 4.8 | 0.00 | 2.51 | 0.03 | 68 | 1021.0 |
| 20260502160118 | 18 | 116 | 0.0 | 6.4 | 0.00 | 2.51 | 0.03 | 76 | 1021.0 |
| 20260502151606 | 16 | 350 | 0.0 | 3.2 | 0.00 | 2.69 | 0.03 | 90 | 1020.9 |
| 20260502140118 | 13 | 88 | 0.0 | 1.6 | 0.00 | 3.15 | 0.03 | 97 | 1020.6 |
| 20260502130115 | 11 | 178 | 0.0 | 0.0 | 0.00 | 4.70 | 0.03 | 97 | 1019.7 |
| 20260502123004 | 10 | 178 | 0.0 | 0.0 | 0.00 | 5.77 | 0.03 | 97 | 1019.1 |
| 20260502121518 | 10 | 178 | 0.0 | 0.0 | 0.00 | 5.77 | 0.03 | 97 | 1019.1 |
| 20260502120113 | 10 | 178 | 0.0 | 0.0 | 0.03 | 5.77 | 0.03 | 96 | 1019.1 |
| 20260502114518 | 10 | 178 | 0.0 | 0.0 | 0.03 | 6.25 | 0.03 | 96 | 1018.8 |
| 20260502113025 | 10 | 177 | 0.0 | 0.0 | 0.03 | 6.25 | 0.03 | 97 | 1018.7 |
| 20260502111541 | 10 | 177 | 0.0 | 0.0 | 0.03 | 6.25 | 0.03 | 97 | 1018.4 |
| 20260502110051 | 10 | 177 | 0.0 | 0.0 | 0.00 | 6.22 | 0.00 | 96 | 1018.2 |
| 20260502104502 | 10 | 177 | 0.0 | 0.0 | 0.00 | 6.96 | 0.00 | 96 | 1018.2 |
| 20260502103031 | 10 | 177 | 0.0 | 0.0 | 0.00 | 6.96 | 0.00 | 96 | 1018.0 |
| 20260502101600 | 10 | 177 | 0.0 | 0.0 | 0.00 | 6.96 | 0.00 | 96 | 1017.7 |
| 20260502091527 | 10 | 177 | 0.0 | 0.0 | 0.00 | 7.57 | 0.00 | 96 | 1016.7 |
| 20260502070107 | 11 | 177 | 0.0 | 0.0 | 0.00 | 8.23 | 0.00 | 96 | 1016.5 |
| 20260502064505 | 11 | 177 | 0.0 | 0.0 | 0.00 | 8.28 | 0.00 | 96 | 1016.4 |
| 20260502063018 | 11 | 177 | 0.0 | 0.0 | 0.00 | 8.28 | 0.00 | 96 | 1016.2 |
| 20260502061551 | 11 | 177 | 0.0 | 1.6 | 0.00 | 8.28 | 0.00 | 96 | 1016.3 |
| 20260502060113 | 11 | 177 | 0.0 | 1.6 | 0.00 | 8.28 | 0.00 | 96 | 1016.3 |
| 20260502054506 | 11 | 177 | 0.0 | 4.8 | 0.00 | 8.79 | 0.00 | 96 | 1016.3 |
| 20260502053036 | 11 | 12 | 0.0 | 0.0 | 0.00 | 8.79 | 0.00 | 97 | 1016.5 |
| 20260502051610 | 12 | 12 | 0.0 | 4.8 | 0.00 | 8.79 | 0.00 | 96 | 1016.4 |
| 20260502050142 | 12 | 218 | 0.0 | 3.2 | 0.00 | 8.79 | 0.00 | 96 | 1016.4 |
| 20260502044543 | 12 | 218 | 0.0 | 4.8 | 0.00 | 8.84 | 8.79 | 97 | 1016.2 |
| 20260502043002 | 12 | 5 | 0.0 | 3.2 | 0.00 | 8.84 | 8.79 | 97 | 1016.3 |
| 20260502041601 | 12 | 5 | 0.0 | 1.6 | 0.00 | 8.84 | 8.79 | 97 | 1016.5 |
| 20260502040047 | 12 | 5 | 0.0 | 3.2 | 0.00 | 8.84 | 8.79 | 97 | 1016.3 |
| 20260502034556 | 12 | 5 | 0.0 | 3.2 | 0.00 | 8.84 | 8.79 | 97 | 1016.1 |
| 20260502033051 | 12 | 5 | 0.0 | 3.2 | 0.05 | 8.84 | 8.79 | 97 | 1016.0 |
| 20260502031530 | 12 | 308 | 0.0 | 3.2 | 0.10 | 8.84 | 8.79 | 97 | 1015.5 |
| 20260502030014 | 12 | 293 | 0.0 | 1.6 | 0.20 | 8.84 | 8.79 | 97 | 1014.9 |
| 20260502024555 | 12 | 355 | 0.0 | 3.2 | 0.33 | 8.84 | 8.79 | 97 | 1015.0 |
| 20260502023006 | 12 | 355 | 0.0 | 1.6 | 0.38 | 8.79 | 8.74 | 97 | 1015.0 |
| 20260502021555 | 12 | 355 | 0.0 | 1.6 | 0.33 | 8.71 | 8.69 | 97 | 1014.9 |
| 20260502020111 | 12 | 355 | 0.0 | 1.6 | 0.28 | 8.64 | 8.61 | 97 | 1014.6 |
| 20260502014534 | 12 | 355 | 0.0 | 3.2 | 0.18 | 8.48 | 8.46 | 97 | 1013.8 |
| 20260502013059 | 13 | 334 | 0.0 | 3.2 | 0.15 | 8.41 | 8.36 | 96 | 1014.6 |
| 20260502011532 | 13 | 336 | 0.0 | 4.8 | 0.20 | 8.38 | 8.33 | 97 | 1013.5 |
| 20260502010054 | 13 | 102 | 0.0 | 3.2 | 0.25 | 8.36 | 8.31 | 97 | 1012.9 |
| 20260502004557 | 13 | 105 | 0.0 | 1.6 | 0.25 | 8.31 | 8.26 | 97 | 1013.5 |
| 20260502003025 | 13 | 115 | 0.0 | 0.0 | 0.30 | 8.26 | 8.20 | 97 | 1013.3 |
| 20260502001555 | 13 | 115 | 0.0 | 3.2 | 0.43 | 8.18 | 8.13 | 97 | 1012.5 |
| 20260502000115 | 13 | 116 | 0.0 | 1.6 | 0.36 | 8.10 | 8.05 | 97 | 1012.3 |
| 20260501234501 | 13 | 117 | 0.0 | 1.6 | 0.30 | 8.05 | 8.00 | 96 | 1012.3 |
| 20260501233019 | 13 | 105 | 0.0 | 3.2 | 0.23 | 7.95 | 7.90 | 96 | 1012.3 |
| 20260501231615 | 14 | 229 | 0.0 | 3.2 | 0.05 | 7.75 | 7.70 | 97 | 1013.0 |
| 20260501230124 | 14 | 101 | 0.0 | 3.2 | 0.08 | 7.75 | 7.70 | 97 | 1010.4 |
| 20260501224535 | 14 | 59 | 0.0 | 4.8 | 0.15 | 7.75 | 7.70 | 96 | 1011.0 |
| 20260501223057 | 14 | 346 | 0.0 | 1.6 | 0.13 | 7.72 | 7.67 | 96 | 1010.9 |
| 20260501221534 | 14 | 346 | 0.0 | 1.6 | 0.15 | 7.70 | 7.65 | 97 | 1012.4 |
| 20260501220105 | 15 | 5 | 0.0 | 3.2 | 0.18 | 7.67 | 7.62 | 97 | 1012.5 |
| 20260501214559 | 15 | 5 | 0.0 | 1.6 | 0.18 | 7.59 | 7.54 | 97 | 1012.3 |
| 20260501213013 | 15 | 5 | 0.0 | 3.2 | 0.28 | 7.59 | 7.54 | 97 | 1011.2 |
| 20260501211601 | 15 | 5 | 0.0 | 4.8 | 0.28 | 7.54 | 7.52 | 97 | 1010.4 |
| 20260501210118 | 15 | 167 | 0.0 | 1.6 | 0.28 | 7.49 | 7.44 | 96 | 1011.5 |
| 20260501204546 | 15 | 167 | 0.0 | 3.2 | 0.23 | 7.42 | 7.37 | 97 | 1011.0 |
| 20260501203048 | 15 | 156 | 0.0 | 4.8 | 0.15 | 7.32 | 7.26 | 97 | 1011.1 |
| 20260501201559 | 15 | 201 | 0.0 | 3.2 | 0.23 | 7.26 | 7.21 | 97 | 1010.9 |
| 20260501200121 | 15 | 11 | 0.0 | 3.2 | 0.28 | 7.21 | 7.16 | 97 | 1010.6 |
| 20260501194539 | 15 | 11 | 0.0 | 1.6 | 0.36 | 7.19 | 7.14 | 97 | 1010.6 |
| 20260501193055 | 15 | 125 | 0.0 | 1.6 | 0.36 | 7.16 | 7.11 | 97 | 1009.4 |
| 20260501191532 | 15 | 125 | 0.0 | 1.6 | 0.25 | 7.04 | 6.99 | 97 | 1009.6 |
| 20260501190129 | 15 | 125 | 0.0 | 1.6 | 0.13 | 6.91 | 6.86 | 97 | 1010.3 |
| 20260501184550 | 15 | 125 | 0.0 | 4.8 | 0.08 | 6.83 | 6.78 | 97 | 1009.6 |
| 20260501183109 | 15 | 169 | 0.0 | 4.8 | 0.05 | 6.81 | 6.76 | 97 | 1009.1 |
| 20260501181532 | 15 | 99 | 0.0 | 1.6 | 0.03 | 6.78 | 6.73 | 97 | 1009.6 |
| 20260501180100 | 15 | 351 | 0.0 | 3.2 | 0.08 | 6.78 | 6.73 | 97 | 1010.2 |
| 20260501174522 | 15 | 36 | 0.0 | 4.8 | 0.13 | 6.78 | 6.71 | 97 | 1010.9 |
| 20260501173048 | 15 | 355 | 0.0 | 3.2 | 0.28 | 6.78 | 6.71 | 97 | 1011.1 |